Hourly Data Report for June 07, 2021

LYTTON RCS
BRITISH COLUMBIA
Current Station Operator: ECCC - MSC

50°13'28.000" N
121°34'55.000" W
225.00 m
1114746
71765
VLY

Download Data

Hourly Data (June 2021)
Hourly Data Report for June 7, 2021
TIME
LST
Temp Definition
°C
Dew Point Definition
°C
Rel Hum Definition
%
Precip. Amount Definition
mm

Wind Dir Definition
10's deg

Wind Spd Definition
km/h
Visibility Definition
km
Stn Press Definition
kPa
Hmdx Definition


Wind Chill Definition


Weather Definition


00:00 11.2 2.9 57 0.0 18 19   98.20     LegendNANA
01:00 10.8 3.3 60 0.0 18 18   98.23     LegendNANA
02:00 10.8 2.9 58 0.0 17 18   98.25     LegendNANA
03:00 9.9 3.6 65 0.0 18 20   98.28     LegendNANA
04:00 9.5 4.0 68 0.0 17 25   98.32     LegendNANA
05:00 9.6 4.0 68 0.0 17 24   98.37     LegendNANA
06:00 9.3 4.2 70 0.0 17 9   98.42     LegendNANA
07:00 11.4 4.1 61 0.0 17 22   98.44     LegendNANA
08:00 13.9 3.6 50 0.0 18 27   98.43     LegendNANA
09:00 15.7 2.4 41 0.0 18 24   98.40     LegendNANA
10:00 18.7 2.6 34 0.0 17 20   98.37     LegendNANA
11:00 19.1 1.8 32 0.0 20 13   98.35     LegendNANA
12:00 19.6 0.8 28 0.0 18 10   98.32     LegendNANA
13:00 21.7 1.0 25 0.0 18 24   98.27     LegendNANA
14:00 19.7 0.8 28 0.0 18 18   98.24     LegendNANA
15:00 21.4 0.8 25 0.0 18 24   98.18     LegendNANA
16:00 20.9 0.6 26 0.0 18 27   98.13     LegendNANA
17:00 19.6 1.1 29 0.0 18 22   98.21     LegendNANA
18:00 15.9 3.7 44 0.0 2 11   98.36     LegendNANA
19:00 14.4 3.9 49 0.0 33 8   98.45     LegendNANA
20:00 12.6 5.3 61 0.0 34 3   98.50     LegendNANA
21:00 12.0 5.3 64 0.0 1 2   98.59     LegendNANA
22:00 10.9 5.3 68 0.0 32 3   98.64     LegendNANA
23:00 10.0 5.6 74 0.0 36 7   98.67     LegendNANA

Notes on Data Quality.

Legend

  • E = Estimated
  • M = Missing
  • NA = Not Available*
  • [empty] = Indicates an unobserved value
Date modified: